x

Boston 16 Nm East Of Boston, Ma (44013) Wave Buoy

11:50pm - Mon 27th Feb 2017 All times are EST. -5 hours from GMT.

  • Sig Wave height 1.6ft
  • Swell Direction
  • Peak Period 4s
  • Average Period 3s
  • Wind
    16mph, 18mph gusts
  • Sea Temp 42°f
  • Air Temp 42°f
  • Sea Pressure 1027.3mb
  • Boston 16 Nm East Of Boston, Ma
  • Boston 16 Nm East Of Boston, Ma

More Historic Weather Station data

Upgrade to MSW Pro to gain access to the past 30 days of data for over 8000 Wavebouys and Weather Stations around the globe.

Join Pro

Comparision Forecast

View Surf forecast
   
Mon 02/27 11:50pm 1.6ft 4s 3s 16 18 mph 1027.3mb 42f 42f
10:50pm 1.6ft 4s 3s 16 18 mph 1027mb 42f 42f
9:50pm 2ft 4s 4s 13 18 mph 1027.5mb 42f 43f
8:50pm 2.5ft 4s 4s 16 20 mph 1027.5mb 42f 44f
7:50pm 2.5ft 3s 4s 18 20 mph 1027mb 42f 45f
6:50pm 3ft 3s 4s 20 22 mph 1026mb 42f 45f
5:50pm 3ft 3s 4s 22 27 mph 1024.9mb 42f 46f
4:50pm 2.5ft 3s 4s 18 20 mph 1024mb 42f 48f
3:50pm 2.5ft 3s 3s 20 25 mph 1023.4mb 42f 49f
2:50pm 2.5ft 3s 3s 18 22 mph 1023.4mb 42f 48f
1:50pm 2ft 3s 3s 18 22 mph 1023.7mb 42f 48f
12:50pm 2ft 11s 3s 16 18 mph 1024.4mb 42f 46f
11:50am 2ft 10s 4s 13 16 mph 1025.8mb 42f 45f
10:50am 2ft 4s 4s 11 13 mph 1026.4mb 42f 43f
9:50am 2.5ft 3s 4s 13 18 mph 1026.6mb 42f 41f
8:50am 3ft 4s 4s 20 22 mph 1026.3mb 42f 38f
7:50am 3ft 3s 4s 22 27 mph 1026mb 42f 36f
6:50am 2.5ft 11s 4s 18 22 mph 1026mb 42f 34f
5:50am 2ft 11s 4s 16 20 mph 1025.3mb 42f 34f
4:50am 2ft 10s 4s 13 18 mph 1025.1mb 42f 34f
3:50am 2ft 11s 4s 13 16 mph 1024.3mb 42f 33f
2:50am 2.5ft 3s 4s 18 22 mph 1023.8mb 42f 35f
1:50am 2.5ft 10s 4s 20 22 mph 1023.3mb 42f 36f
12:50am 2.5ft 10s 4s 18 22 mph 1022.2mb 42f 35f
Sun 02/26 11:50pm 2.5ft 4s 4s 18 22 mph 1021.3mb 42f 36f
10:50pm 2.5ft 4s 4s 20 25 mph 1020.8mb 42f 36f
9:50pm 3ft 4s 4s 20 25 mph 1020mb 42f 37f
8:50pm 3ft 4s 4s 22 27 mph 1019mb 42f 37f
7:50pm 3ft 4s 4s 25 31 mph 1017.7mb 42f 38f
6:50pm 3.5ft 4s 4s 27 31 mph 1016.1mb 42f 38f
5:50pm 3.5ft 4s 4s 22 27 mph 1014.8mb 42f 39f
4:50pm 3.5ft 11s 4s 25 29 mph 1012.8mb 42f 40f
3:50pm 3.5ft 11s 4s 22 27 mph 1011.3mb 42f 41f
2:50pm 3.5ft 4s 4s 22 27 mph 1010.2mb 42f 41f
1:50pm 3.5ft 4s 4s 20 27 mph 1009.6mb 42f 41f
12:50pm 3.5ft 4s 4s 25 29 mph 1008.9mb 42f 40f
11:50am 3.5ft 4s 4s 25 31 mph 1008.4mb 42f 40f
10:50am 3.5ft 4s 4s 25 29 mph 1008mb 42f 39f
9:50am 3.5ft 4s 4s 25 29 mph 1007.8mb 42f 39f
8:50am 3.5ft 5s 4s 27 31 mph 1007mb 42f 39f
7:50am 3.5ft 4s 4s 29 36 mph 1005.6mb 42f 40f
6:50am 4ft 4s 4s 27 31 mph 1004mb 42f 40f
5:50am 4ft 4s 4s 29 36 mph 1002.7mb 43f 41f
4:50am 3.5ft 4s 4s 31 38 mph 1001.5mb 43f 42f
3:50am 2.5ft 4s 4s 25 29 mph 1000mb 43f 44f
2:50am 3ft 4s 4s 25 34 mph 998.8mb 43f 44f
1:50am 2.5ft 3s 4s 22 27 mph 997.5mb 43f 45f
12:50am 2ft 10s 4s 20 22 mph 996.6mb 43f 46f
Sat 02/25 11:50pm 2ft 10s 5s 22 25 mph 995.8mb 43f 47f
10:50pm 2ft 10s 4s 9 11 mph 996.2mb 43f 48f
9:50pm 2ft 11s 4s 13 16 mph 996.7mb 43f 46f
8:50pm 2ft 11s 4s 13 16 mph 996.9mb 43f 46f
7:50pm 2.5ft 11s 4s 13
mph
998.4mb 43f 46f
6:50pm 2.5ft 11s 4s 11 13 mph 999mb 43f 46f
5:50pm 2.5ft 11s 4s 18
mph
999.6mb 43f 48f
4:50pm 2.5ft 11s 4s 20 22 mph 1000.5mb 43f 49f
3:50pm 2.5ft 10s 4s 18 20 mph 1002.8mb 43f 49f
2:50pm 2.5ft 11s 4s 16 18 mph 1003.7mb 44f 49f
1:50pm 2.5ft 11s 4s 18 20 mph 1004.5mb 44f 52f
12:50pm 2.5ft 11s 4s 16 18 mph 1005.2mb 43f 50f
11:50am 2.5ft 11s 4s 16 18 mph 1006.5mb 43f 48f
10:50am 2.5ft 11s 5s 13 16 mph 1007.9mb 43f 47f
9:50am 2ft 11s 5s 11 13 mph 1009mb 43f 45f
8:50am 2ft 12s 4s 13
mph
1009.7mb 43f 44f
7:50am 2ft 11s 4s 13
mph
1010.4mb 43f 44f
6:50am 2ft 9s 4s 18 20 mph 1009.8mb 43f 44f
5:50am 2ft 9s 5s 16 18 mph 1009.9mb 43f 47f
4:50am 2ft 9s 6s 11 13 mph 1010.7mb 43f 47f
3:50am 2ft 10s 6s 11
mph
1010.6mb 43f 46f
2:50am 2ft 9s 5s 9 11 mph 1010.8mb 43f 45f
1:50am 2.5ft 9s 5s 7 9 mph 1011mb 43f 48f
12:50am 2ft 10s 5s 9
mph
1010.7mb 43f 47f
Fri 02/24 11:50pm 2.5ft 10s 5s 16
mph
1010.3mb 43f 49f
10:50pm 2.5ft 10s 5s 16 18 mph 1010.6mb 43f 49f
9:50pm 2.5ft 10s 6s 13
mph
1010.9mb 43f 50f
8:50pm 2.5ft 10s 5s 9
mph
1011.4mb 43f 49f
7:50pm 2.5ft 10s 5s 11
mph
1011.7mb 43f 49f
6:50pm 3ft 10s 5s 16 18 mph 1011.5mb 43f 53f
5:50pm 3ft 10s 4s 18 20 mph 1011mb 43f 55f
4:50pm 3ft 9s 5s 16 20 mph 1010.8mb 43f 55f
3:50pm 3ft 10s 5s 20 25 mph 1010.4mb 43f 58f
2:50pm 3ft 10s 5s 13 16 mph 1010.7mb 43f 57f
1:50pm 2.5ft 10s 5s 16 18 mph 1010.8mb 43f 58f
12:50pm 2.5ft 10s 7s 9 11 mph 1011.5mb 43f 55f
11:50am 2.5ft 10s 8s 11 13 mph 1012.4mb 43f 47f
10:50am 2.5ft 11s 8s 9 11 mph 1013.3mb 43f 46f
9:50am 2.5ft 11s 8s 9 11 mph 1013.2mb 42f 45f
8:50am 2.5ft 11s 7s 11
mph
1013.3mb 42f 45f
7:50am 2.5ft 11s 7s 11 13 mph 1013mb 42f 46f
6:50am 2.5ft 11s 7s 11
mph
1012.7mb 42f 45f
5:50am 2.5ft 11s 7s 13
mph
1012.6mb 42f 47f